Weather in Poselok stantsii Semlevo

Russia / Smolensk Oblast     55°08′36″N   33°59′51″E
temp.,
°C
wind,
m/s
gust,
m/s
humid.,
%
clouds,
%
prec.,
mm/h
press.,
hPa
HPBL,
m
19 may, wed
wed1900:00+16se310965 0.7 1002332
03:00+14se399659 0.7 1002292
06:00+13ese4996100 0.0 1003383
09:00+14se41094100 0.3 1004467
12:00+18sse577635 1.3 10041116
15:00+20sse4763100 2.3 10051482
18:00+18sse3676100 0.9 1005799
21:00+14se2393100 1.7 100650
20 may, thu
thu2000:00+14ese2496100 0.7 1005135
03:00+12ne2798100 0.9 1003190
06:00+13ene41294100 1.1 1001708
09:00+12ese5119498 1.3 1001822
12:00+15se6107889 0.6 10011244
15:00+15se587833 1.8 10011062
18:00+13se3688100 0.8 1001469
21:00+11sse1194100 0.9 100250
21 may, fri
fri2100:00+10nw51196100 0.6 1004727
03:00+9wnw5119496 1.1 1007835
06:00+8wnw4129594 0.0 1010688
09:00+12w477520 0.1 1012881
12:00+16w57465 0.0 10131827
15:00+17wsw57417 0.0 10142126
18:00+16wsw56535 0.0 10151900
21:00+9wsw25790 0.0 101777
22 may, sat
sat2200:00+7wsw25845 0.0 101881
03:00+6sw22908 0.0 101915
06:00+8ssw12820 0.0 101967
09:00+14s235544 0.0 1018785
12:00+17s344150 0.0 10181711
15:00+19ssw3536100 0.0 10162042
18:00+18ssw254952 0.0 10161242
21:00+11wsw1176100 0.0 101610
23 may, sun
sun2300:00+10se2382100 0.0 101545
03:00+9se2794100 0.0 1015134
06:00+10se399128 0.0 1014269
09:00+15se4866100 0.0 1011654
12:00+14se3780100 0.1 1008556
15:00+13se1596100 1.5 1005263
18:00+14ssw289686 0.4 1003482
21:00+12ssw389897 2.0 1001420